• Em Portugal
  • Lista de países
  • Para 7 dias
  • Temperatura da água
  • Mapas de satélite
  • Mapa do tempo
  • Widgets de tempo
  • user-avatar
    Iniciar Sessão

    Previsão horária em Al Hilla

    Hoje, 23 Novembro, Quinta-feira

    Tempo Temperatura Precipitação Vento Pressão Humidade
    00:00 +20°C° 0 mm 1 m/s 757 mmHg 43%
    01:00 +19°C° 0 mm 2 m/s 757 mmHg 44%
    02:00 +18°C° 0 mm 2 m/s 757 mmHg 45%
    03:00 +18°C° 0 mm 2 m/s 757 mmHg 46%
    04:00 +18°C° 0 mm 2 m/s 758 mmHg 48%
    05:00 +18°C° 0 mm 2 m/s 758 mmHg 49%
    06:00 +17°C° 0 mm 2 m/s 758 mmHg 51%
    07:00 +18°C° 0 mm 3 m/s 759 mmHg 48%
    08:00 +18°C° 0 mm 3 m/s 759 mmHg 45%
    09:00 +18°C° 0 mm 2 m/s 760 mmHg 42%
    10:00 +19°C° 0 mm 2 m/s 760 mmHg 38%
    11:00 +20°C° 0 mm 2 m/s 760 mmHg 34%
    12:00 +21°C° 0 mm 3 m/s 760 mmHg 30%
    13:00 +21°C° 0 mm 3 m/s 759 mmHg 28%
    14:00 +21°C° 0 mm 3 m/s 759 mmHg 27%
    15:00 +21°C° 0 mm 3 m/s 759 mmHg 26%
    16:00 +20°C° 0 mm 3 m/s 759 mmHg 26%
    17:00 +20°C° 0 mm 3 m/s 759 mmHg 27%
    18:00 +19°C° 0 mm 3 m/s 759 mmHg 27%
    19:00 +19°C° 0 mm 3 m/s 760 mmHg 27%
    20:00 +19°C° 0 mm 3 m/s 760 mmHg 27%
    21:00 +18°C° 0 mm 3 m/s 760 mmHg 27%
    22:00 +18°C° 0 mm 3 m/s 760 mmHg 27%
    23:00 +17°C° 0 mm 3 m/s 760 mmHg 28%

    Amanhã, 24 Novembro, Sexta-feira

    Tempo Temperatura Precipitação Vento Pressão Humidade
    00:00 +17°C° 0 mm 2 m/s 761 mmHg 28%
    01:00 +16°C° 0 mm 2 m/s 761 mmHg 28%
    02:00 +16°C° 0 mm 2 m/s 761 mmHg 29%
    03:00 +16°C° 0 mm 2 m/s 761 mmHg 29%
    04:00 +15°C° 0 mm 1 m/s 761 mmHg 30%
    05:00 +15°C° 0 mm 1 m/s 761 mmHg 31%
    06:00 +13°C° 0 mm 0 m/s 761 mmHg 31%
    07:00 +14°C° 0 mm 0 m/s 762 mmHg 29%
    08:00 +15°C° 0 mm 0 m/s 762 mmHg 26%
    09:00 +16°C° 0 mm 0 m/s 762 mmHg 24%
    10:00 +19°C° 0 mm 1 m/s 762 mmHg 23%
    11:00 +19°C° 0 mm 2 m/s 763 mmHg 23%
    12:00 +20°C° 0 mm 2 m/s 763 mmHg 22%
    13:00 +20°C° 0 mm 2 m/s 762 mmHg 23%
    14:00 +20°C° 0 mm 2 m/s 762 mmHg 23%
    15:00 +21°C° 0 mm 2 m/s 762 mmHg 23%
    16:00 +20°C° 0 mm 2 m/s 762 mmHg 25%
    17:00 +20°C° 0 mm 1 m/s 762 mmHg 26%
    18:00 +20°C° 0 mm 1 m/s 763 mmHg 28%
    19:00 +19°C° 0 mm 1 m/s 763 mmHg 28%
    20:00 +19°C° 0 mm 1 m/s 763 mmHg 29%
    21:00 +19°C° 0 mm 1 m/s 764 mmHg 30%
    22:00 +17°C° 0 mm 2 m/s 764 mmHg 30%
    23:00 +17°C° 0 mm 2 m/s 764 mmHg 30%

    Depois de amanhã, 25 Novembro, Sábado

    Tempo Temperatura Precipitação Vento Pressão Humidade
    00:00 +17°C° 0 mm 2 m/s 764 mmHg 30%
    01:00 +17°C° 0 mm 2 m/s 764 mmHg 30%
    02:00 +16°C° 0 mm 2 m/s 764 mmHg 30%
    03:00 +16°C° 0 mm 2 m/s 764 mmHg 31%
    04:00 +15°C° 0 mm 2 m/s 764 mmHg 31%
    05:00 +15°C° 0 mm 2 m/s 764 mmHg 31%
    06:00 +15°C° 0 mm 1 m/s 765 mmHg 32%
    07:00 +16°C° 0 mm 2 m/s 765 mmHg 30%
    08:00 +17°C° 0 mm 2 m/s 765 mmHg 28%
    09:00 +18°C° 0 mm 2 m/s 766 mmHg 26%
    10:00 +20°C° 0 mm 1 m/s 766 mmHg 25%
    11:00 +21°C° 0 mm 1 m/s 766 mmHg 25%
    12:00 +22°C° 0 mm 1 m/s 765 mmHg 24%
    13:00 +22°C° 0 mm 1 m/s 765 mmHg 24%
    14:00 +22°C° 0 mm 1 m/s 765 mmHg 24%
    15:00 +23°C° 0 mm 1 m/s 764 mmHg 24%
    16:00 +22°C° 0 mm 1 m/s 764 mmHg 25%
    17:00 +20°C° 0 mm 2 m/s 764 mmHg 27%
    18:00 +20°C° 0 mm 2 m/s 765 mmHg 28%
    19:00 +19°C° 0 mm 3 m/s 765 mmHg 30%
    20:00 +19°C° 0 mm 3 m/s 765 mmHg 31%
    21:00 +18°C° 0 mm 3 m/s 765 mmHg 33%
    22:00 +18°C° 0 mm 3 m/s 765 mmHg 33%
    23:00 +18°C° 0 mm 3 m/s 765 mmHg 34%

    26 Novembro, Domingo

    Tempo Temperatura Precipitação Vento Pressão Humidade
    00:00 +17°C° 0 mm 3 m/s 765 mmHg 34%
    01:00 +17°C° 0 mm 3 m/s 764 mmHg 34%
    02:00 +17°C° 0 mm 3 m/s 764 mmHg 33%
    03:00 +16°C° 0 mm 3 m/s 764 mmHg 33%
    04:00 +16°C° 0 mm 3 m/s 764 mmHg 32%
    05:00 +16°C° 0 mm 3 m/s 764 mmHg 32%
    06:00 +14°C° 0 mm 3 m/s 764 mmHg 32%
    07:00 +16°C° 0,2 mm 2 m/s 764 mmHg 33%
    08:00 +16°C° 0,2 mm 2 m/s 764 mmHg 35%
    09:00 +16°C° 0,2 mm 1 m/s 765 mmHg 37%
    10:00 +16°C° 0,4 mm 2 m/s 764 mmHg 40%
    11:00 +14°C° 0,4 mm 3 m/s 764 mmHg 44%
    12:00 +14°C° 0,4 mm 3 m/s 764 mmHg 48%
    13:00 +14°C° 0,2 mm 4 m/s 764 mmHg 49%
    14:00 +14°C° 0,2 mm 4 m/s 763 mmHg 50%
    15:00 +14°C° 0,2 mm 5 m/s 763 mmHg 51%
    16:00 +14°C° 0,1 mm 5 m/s 763 mmHg 52%
    17:00 +14°C° 0,1 mm 5 m/s 763 mmHg 53%
    18:00 +14°C° 0,1 mm 5 m/s 763 mmHg 54%
    19:00 +14°C° 0 mm 5 m/s 763 mmHg 54%
    20:00 +14°C° 0 mm 4 m/s 763 mmHg 54%
    21:00 +14°C° 0 mm 4 m/s 763 mmHg 55%
    22:00 +14°C° 0 mm 3 m/s 763 mmHg 55%
    23:00 +14°C° 0 mm 3 m/s 763 mmHg 55%

    27 Novembro, Segunda-feira

    Tempo Temperatura Precipitação Vento Pressão Humidade
    00:00 +15°C° 0 mm 2 m/s 762 mmHg 55%
    01:00 +15°C° 0 mm 2 m/s 762 mmHg 54%
    02:00 +15°C° 0 mm 2 m/s 762 mmHg 54%
    03:00 +14°C° 0 mm 3 m/s 762 mmHg 54%
    04:00 +14°C° 0 mm 3 m/s 762 mmHg 53%
    05:00 +14°C° 0 mm 3 m/s 762 mmHg 52%
    06:00 +14°C° 0 mm 3 m/s 762 mmHg 52%
    07:00 +16°C° 0 mm 2 m/s 762 mmHg 51%
    08:00 +16°C° 0 mm 2 m/s 762 mmHg 49%
    09:00 +16°C° 0 mm 2 m/s 762 mmHg 48%
    10:00 +17°C° 0 mm 2 m/s 762 mmHg 46%
    11:00 +18°C° 0 mm 2 m/s 762 mmHg 43%
    12:00 +20°C° 0 mm 1 m/s 761 mmHg 41%
    13:00 +20°C° 0 mm 2 m/s 761 mmHg 40%
    14:00 +20°C° 0 mm 2 m/s 761 mmHg 39%
    15:00 +20°C° 0 mm 2 m/s 760 mmHg 38%
    16:00 +20°C° 0 mm 3 m/s 760 mmHg 40%
    17:00 +19°C° 0 mm 3 m/s 760 mmHg 41%
    18:00 +19°C° 0 mm 3 m/s 761 mmHg 42%
    19:00 +18°C° 0 mm 3 m/s 761 mmHg 44%
    20:00 +18°C° 0 mm 3 m/s 761 mmHg 46%
    21:00 +17°C° 0 mm 3 m/s 761 mmHg 48%
    22:00 +17°C° 0 mm 3 m/s 761 mmHg 49%
    23:00 +17°C° 0 mm 3 m/s 761 mmHg 51%

    28 Novembro, Terça-feira

    Tempo Temperatura Precipitação Vento Pressão Humidade
    00:00 +16°C° 0 mm 3 m/s 761 mmHg 53%
    01:00 +16°C° 0 mm 3 m/s 761 mmHg 55%
    02:00 +16°C° 0 mm 3 m/s 761 mmHg 56%
    03:00 +16°C° 0 mm 3 m/s 761 mmHg 57%
    04:00 +14°C° 0 mm 3 m/s 761 mmHg 58%
    05:00 +14°C° 0 mm 3 m/s 761 mmHg 59%
    06:00 +14°C° 0 mm 3 m/s 761 mmHg 59%
    07:00 +16°C° 0 mm 3 m/s 762 mmHg 55%
    08:00 +16°C° 0 mm 3 m/s 762 mmHg 51%
    09:00 +17°C° 0 mm 3 m/s 763 mmHg 48%
    10:00 +18°C° 0 mm 3 m/s 762 mmHg 44%
    11:00 +19°C° 0 mm 3 m/s 762 mmHg 41%
    12:00 +20°C° 0 mm 3 m/s 762 mmHg 38%
    13:00 +21°C° 0 mm 3 m/s 762 mmHg 37%
    14:00 +21°C° 0 mm 3 m/s 761 mmHg 36%
    15:00 +21°C° 0 mm 3 m/s 761 mmHg 34%
    16:00 +21°C° 0 mm 3 m/s 761 mmHg 36%
    17:00 +20°C° 0 mm 3 m/s 761 mmHg 37%
    18:00 +19°C° 0 mm 3 m/s 761 mmHg 38%
    19:00 +19°C° 0 mm 2 m/s 761 mmHg 39%
    20:00 +18°C° 0 mm 2 m/s 762 mmHg 40%
    21:00 +18°C° 0 mm 2 m/s 762 mmHg 41%
    22:00 +17°C° 0 mm 2 m/s 762 mmHg 42%
    23:00 +17°C° 0 mm 2 m/s 762 mmHg 43%
    Mostrar mais